{"data":{"norad_id":58541,"intl_designator":"2023-192L","name":"STARLINK-31045","alt_names":[],"object_type":"PAYLOAD","status":"ACTIVE","operator":null,"country":"US","launch_date":"2023-12-08","launch_site_code":"AFWTR","launch_vehicle":null,"mission":null,"orbit_class":"UNKNOWN","rcs_meters":null,"size_class":null,"mass_kg":null,"dimensions":null,"purposes":["comms"],"wikipedia_slug":null,"has_3d_model":false,"image_url":null,"decayed_at":null,"tle_current":{"epoch":"2026-05-24T23:26:46.840128Z","epoch_age_seconds":70995,"freshness":"FRESH","line1":"1 58541U 23192L   26144.97693102 -.00000098  00000+0  88315-5 0  9991","line2":"2 58541  53.1586 145.2328 0001103  92.4867 267.6260 15.30188848136576","mean_motion":15.30188848,"eccentricity":0.0001103,"inclination_deg":53.1586,"raan_deg":145.2328,"arg_perigee_deg":92.4867,"mean_anomaly_deg":267.626,"bstar":8.8315e-6,"rev_number":13657,"period_min":94.106031545199,"perigee_km":474.49243907736,"apogee_km":476.00429588942,"semimajor_km":6853.3853674834,"source":"CELESTRAK","updated_at":"2026-05-25T13:38:18.662412Z"}}}